TimeEST,TemperatureF,Dew PointF,Humidity,Sea Level PressureIn,VisibilityMPH,Wind Direction,Wind SpeedMPH,Gust SpeedMPH,PrecipitationIn,Events,Conditions,WindDirDegrees,DateUTC
12:15 AM,61.9,55.0,78,30.08,10.0,SW,3.5,-,N/A,,Unknown,220,2014-02-20 05:15:00
12:35 AM,61.5,54.7,78,30.08,10.0,South,5.8,-,N/A,,Unknown,190,2014-02-20 05:35:00
12:55 AM,60.8,54.9,81,30.09,10.0,SSW,4.6,-,N/A,,Unknown,200,2014-02-20 05:55:00
1:15 AM,59.7,54.7,83,30.10,10.0,Calm,Calm,-,N/A,,Unknown,0,2014-02-20 06:15:00
1:35 AM,59.4,54.9,85,30.10,10.0,Calm,Calm,-,N/A,,Unknown,0,2014-02-20 06:35:00
1:55 AM,57.9,54.5,88,30.11,10.0,Calm,Calm,-,N/A,,Unknown,0,2014-02-20 06:55:00
2:15 AM,58.3,54.5,87,30.10,10.0,Calm,Calm,-,N/A,,Unknown,0,2014-02-20 07:15:00
2:35 AM,56.5,53.8,91,30.10,10.0,Calm,Calm,-,N/A,,Unknown,0,2014-02-20 07:35:00
2:44 AM,55.4,53.6,94,30.09,10.0,Calm,Calm,-,N/A,,Unknown,0,2014-02-20 07:44:00
2:55 AM,55.6,53.6,93,30.10,10.0,Calm,Calm,-,N/A,,Unknown,0,2014-02-20 07:55:00
3:15 AM,56.1,54.3,94,30.10,10.0,Calm,Calm,-,N/A,,Unknown,0,2014-02-20 08:15:00
3:27 AM,57.2,53.6,88,30.12,10.0,Calm,Calm,-,N/A,,Unknown,0,2014-02-20 08:27:00
3:35 AM,56.7,54.1,91,30.11,10.0,Calm,Calm,-,N/A,,Unknown,0,2014-02-20 08:35:00
3:55 AM,56.8,54.3,91,30.12,10.0,South,4.6,-,N/A,,Unknown,180,2014-02-20 08:55:00
4:15 AM,57.4,54.1,89,30.12,10.0,South,3.5,-,N/A,,Unknown,170,2014-02-20 09:15:00
4:35 AM,56.3,54.0,92,30.12,10.0,Calm,Calm,-,N/A,,Unknown,0,2014-02-20 09:35:00
4:55 AM,55.9,53.8,92,30.12,10.0,Calm,Calm,-,N/A,,Unknown,0,2014-02-20 09:55:00
5:15 AM,56.8,54.1,91,30.12,10.0,Calm,Calm,-,N/A,,Unknown,0,2014-02-20 10:15:00
5:35 AM,55.2,53.4,94,30.14,7.0,Calm,Calm,-,N/A,,Unknown,0,2014-02-20 10:35:00
5:55 AM,54.9,53.6,96,30.13,7.0,NE,4.6,-,N/A,,Unknown,50,2014-02-20 10:55:00
6:15 AM,54.5,53.4,96,30.15,7.0,Calm,Calm,-,N/A,,Unknown,0,2014-02-20 11:15:00
6:35 AM,54.3,53.4,97,30.15,7.0,Calm,Calm,-,N/A,,Unknown,0,2014-02-20 11:35:00
6:55 AM,53.8,52.9,97,30.15,7.0,Calm,Calm,-,N/A,,Unknown,0,2014-02-20 11:55:00
7:15 AM,54.5,53.2,96,30.15,7.0,Calm,Calm,-,N/A,,Unknown,0,2014-02-20 12:15:00
7:35 AM,54.0,52.9,96,30.14,7.0,East,3.5,-,N/A,,Unknown,90,2014-02-20 12:35:00
7:55 AM,54.3,52.9,95,30.16,7.0,NNE,3.5,-,N/A,,Unknown,30,2014-02-20 12:55:00
8:15 AM,55.4,53.6,94,30.16,7.0,ENE,4.6,-,N/A,,Unknown,60,2014-02-20 13:15:00
8:35 AM,56.7,53.6,89,30.17,10.0,East,4.6,-,N/A,,Unknown,80,2014-02-20 13:35:00
8:55 AM,57.4,53.8,88,30.17,10.0,East,4.6,-,N/A,,Unknown,80,2014-02-20 13:55:00
9:15 AM,60.1,54.5,82,30.16,10.0,East,4.6,-,N/A,,Unknown,100,2014-02-20 14:15:00
9:35 AM,61.9,54.5,77,30.16,10.0,NE,3.5,-,N/A,,Unknown,40,2014-02-20 14:35:00
9:55 AM,62.8,54.3,74,30.16,10.0,Calm,Calm,-,N/A,,Unknown,0,2014-02-20 14:55:00
10:15 AM,63.9,54.5,72,30.15,10.0,SE,6.9,-,N/A,,Unknown,130,2014-02-20 15:15:00
10:35 AM,66.7,54.9,66,30.15,10.0,SE,5.8,-,N/A,,Unknown,130,2014-02-20 15:35:00
10:55 AM,68.0,54.5,62,30.15,10.0,SE,9.2,-,N/A,,Unknown,140,2014-02-20 15:55:00
11:15 AM,67.5,54.9,64,30.14,10.0,SSE,3.5,-,N/A,,Unknown,150,2014-02-20 16:15:00
11:35 AM,69.3,55.6,62,30.13,10.0,SE,8.1,-,N/A,,Unknown,140,2014-02-20 16:35:00
11:55 AM,69.6,55.4,61,30.13,10.0,South,6.9,-,N/A,,Unknown,180,2014-02-20 16:55:00
12:15 PM,72.5,55.9,56,30.12,10.0,South,5.8,-,N/A,,Unknown,190,2014-02-20 17:15:00
12:35 PM,73.8,55.6,53,30.11,10.0,South,9.2,-,N/A,,Unknown,190,2014-02-20 17:35:00
12:55 PM,74.3,55.2,51,30.09,10.0,SSE,10.4,-,N/A,,Unknown,160,2014-02-20 17:55:00
1:15 PM,75.2,56.3,52,30.08,10.0,SSW,13.8,19.6,N/A,,Unknown,200,2014-02-20 18:15:00
1:35 PM,76.8,57.2,51,30.07,10.0,South,11.5,-,N/A,,Unknown,190,2014-02-20 18:35:00
1:55 PM,78.3,54.9,44,30.06,10.0,SSW,16.1,23.0,N/A,,Unknown,210,2014-02-20 18:55:00
2:15 PM,78.8,54.3,43,30.05,10.0,South,13.8,23.0,N/A,,Unknown,190,2014-02-20 19:15:00
2:35 PM,79.2,53.4,41,30.05,10.0,South,16.1,24.2,N/A,,Unknown,190,2014-02-20 19:35:00
2:55 PM,79.7,53.8,41,30.04,10.0,SSW,11.5,20.7,N/A,,Unknown,210,2014-02-20 19:55:00
3:15 PM,79.7,52.2,38,30.04,10.0,SW,13.8,19.6,N/A,,Unknown,220,2014-02-20 20:15:00
3:35 PM,80.1,51.3,37,30.04,10.0,SSW,15.0,23.0,N/A,,Unknown,210,2014-02-20 20:35:00
3:55 PM,79.2,51.4,38,30.04,10.0,SSW,19.6,25.3,N/A,,Unknown,210,2014-02-20 20:55:00
4:15 PM,79.3,52.9,40,30.04,10.0,SSW,12.7,17.3,N/A,,Unknown,210,2014-02-20 21:15:00
4:35 PM,78.8,52.7,40,30.04,10.0,SSW,13.8,20.7,N/A,,Unknown,210,2014-02-20 21:35:00
4:55 PM,78.8,53.2,41,30.04,10.0,SSW,10.4,16.1,N/A,,Unknown,210,2014-02-20 21:55:00
5:15 PM,78.1,53.6,43,30.04,10.0,South,10.4,-,N/A,,Unknown,190,2014-02-20 22:15:00
5:35 PM,77.2,53.6,44,30.03,10.0,South,6.9,16.1,N/A,,Unknown,190,2014-02-20 22:35:00
5:55 PM,76.1,53.4,45,30.04,10.0,South,8.1,-,N/A,,Unknown,190,2014-02-20 22:55:00
6:15 PM,74.1,53.8,49,30.04,10.0,South,5.8,-,N/A,,Unknown,170,2014-02-20 23:15:00
6:35 PM,73.4,54.0,50,30.04,10.0,SSE,5.8,-,N/A,,Unknown,160,2014-02-20 23:35:00
6:55 PM,72.0,54.5,54,30.04,10.0,SSE,6.9,-,N/A,,Unknown,160,2014-02-20 23:55:00
7:15 PM,71.8,55.6,57,30.04,10.0,SSE,9.2,-,N/A,,Unknown,160,2014-02-21 00:15:00
7:35 PM,71.2,55.9,58,30.04,10.0,SSE,10.4,-,N/A,,Unknown,160,2014-02-21 00:35:00
7:55 PM,70.9,55.6,58,30.04,10.0,South,13.8,17.3,N/A,,Unknown,180,2014-02-21 00:55:00
8:15 PM,70.5,55.4,59,30.04,10.0,South,12.7,-,N/A,,Unknown,170,2014-02-21 01:15:00
8:35 PM,70.2,56.3,61,30.05,10.0,South,9.2,17.3,N/A,,Unknown,170,2014-02-21 01:35:00
8:55 PM,69.4,56.8,64,30.05,10.0,South,10.4,16.1,N/A,,Unknown,170,2014-02-21 01:55:00
9:15 PM,68.4,57.4,68,30.05,10.0,South,9.2,-,N/A,,Unknown,170,2014-02-21 02:15:00
9:35 PM,67.5,57.2,70,30.05,10.0,South,9.2,-,N/A,,Unknown,170,2014-02-21 02:35:00
9:55 PM,66.4,57.9,74,30.05,10.0,South,9.2,-,N/A,,Unknown,170,2014-02-21 02:55:00
10:15 PM,66.2,59.2,78,30.05,10.0,South,11.5,-,N/A,,Unknown,180,2014-02-21 03:15:00
10:35 PM,66.6,60.3,80,30.05,10.0,South,10.4,-,N/A,,Unknown,180,2014-02-21 03:35:00
10:55 PM,66.7,61.0,82,30.04,10.0,South,13.8,17.3,N/A,,Unknown,170,2014-02-21 03:55:00
11:15 PM,67.1,61.7,83,30.04,10.0,South,13.8,18.4,N/A,,Unknown,180,2014-02-21 04:15:00
11:35 PM,67.1,62.2,84,30.03,10.0,South,15.0,21.9,N/A,,Unknown,180,2014-02-21 04:35:00
11:55 PM,66.9,62.4,85,30.01,10.0,South,11.5,18.4,N/A,,Unknown,170,2014-02-21 04:55:00